Weather History for KNIP - December, 2013

Change the Weather History Date:

Tuesday, December 24, 2013

  Actual Average Record
Temperature  
Mean Temperature 57 °F -  
Max Temperature 63 °F 61 °F 80 °F (2014)
Min Temperature 51 °F 43 °F 37 °F (2000)
Degree Days  
Heating Degree Days 8    
Growing Degree Days 7 (Base 50)    
Moisture  
Dew Point 42 °F    
Average Humidity 60    
Maximum Humidity 87    
Minimum Humidity 31    
Precipitation  
Precipitation 0.01 in - - ()
Sea Level Pressure  
Sea Level Pressure 30.24 in    
Wind  
Wind Speed 14 mph (NNW)    
Max Wind Speed 18 mph    
Max Gust Speed 25 mph    
Visibility 10 miles    
Events Rain    
Averages and records for this station are not official NWS values.
T = Trace of Precipitation, MM = Missing Value Source: NWS Daily Summary

Daily Weather History Graph

Daily Weather History Graph

Search for Another Location

Airport or City:

Trip Planner

Search our weather history database for the weather conditions in past years. The results will help you decide how hot, cold, wet, or windy it might be!

Date:

Astronomy

Dec. 24, 2013 Rise Set
Actual Time 7:20 AM EST 5:32 PM EST
Civil Twilight 6:54 AM EST 5:58 PM EST
Nautical Twilight 6:24 AM EST 6:28 PM EST
Astronomical Twilight 5:54 AM EST 6:58 PM EST
Moon No Moon Rise 11:40 AM EST (12/24)
Length of Visible Light 11h 04m
Length of Day
10h 12m
Waning Gibbous, 59% of the Moon is Illuminated
Dec 24
Waning Gibbous
Dec 25
Last Quarter
Jan 1
New
Jan 7
First Quarter
Jan 15
Full

Hourly Weather History & Observations

Time (EST) Temp. Dew Point Humidity Pressure Visibility Wind Dir Wind Speed Gust Speed Precip Events Conditions
12:02 AM 63.0 °F 59.0 °F 87% 30.15 in 10.0 mi NNW 16.1 mph - N/A   Overcast
12:38 AM 62.1 °F 57.0 °F 84% 30.15 in 10.0 mi NNW 13.8 mph - N/A   Overcast
12:53 AM 62.1 °F 55.9 °F 80% 30.14 in 10.0 mi NNW 13.8 mph - N/A   Overcast
1:53 AM 61.0 °F 55.9 °F 83% 30.15 in 10.0 mi NNW 12.7 mph - 0.00 in   Overcast
2:53 AM 61.0 °F 55.0 °F 81% 30.15 in 10.0 mi NW 9.2 mph - N/A   Overcast
3:35 AM 61.0 °F 55.0 °F 81% 30.17 in 9.0 mi NW 9.2 mph - 0.00 in Rain Light Rain
3:53 AM 61.0 °F 55.9 °F 83% 30.16 in 10.0 mi NW 5.8 mph - 0.01 in Rain Light Rain
4:53 AM 57.9 °F 54.0 °F 87% 30.17 in 10.0 mi NW 15.0 mph 24.2 mph 0.00 in   Overcast
5:01 AM 57.9 °F 54.0 °F 87% 30.19 in 10.0 mi NW 13.8 mph - N/A   Overcast
5:53 AM 57.0 °F 52.0 °F 83% 30.20 in 10.0 mi NW 16.1 mph - N/A   Overcast
6:53 AM 55.0 °F 48.0 °F 77% 30.23 in 10.0 mi NNW 18.4 mph 25.3 mph N/A   Overcast
7:17 AM 54.0 °F 46.0 °F 75% 30.26 in 10.0 mi NW 17.3 mph 24.2 mph N/A   Mostly Cloudy
7:53 AM 52.0 °F 44.1 °F 74% 30.26 in 10.0 mi NW 13.8 mph - N/A   Scattered Clouds
8:53 AM 51.1 °F 42.1 °F 71% 30.29 in 10.0 mi NW 15.0 mph - N/A   Scattered Clouds
9:53 AM 52.0 °F 37.9 °F 59% 30.30 in 10.0 mi NNW 13.8 mph - N/A   Partly Cloudy
10:53 AM 55.0 °F 35.1 °F 47% 30.31 in 10.0 mi NNW 15.0 mph - N/A   Partly Cloudy
11:53 AM 57.0 °F 35.1 °F 44% 30.30 in 10.0 mi NNW 13.8 mph - N/A   Scattered Clouds
12:53 PM 60.1 °F 34.0 °F 38% 30.27 in 10.0 mi NNW 13.8 mph - N/A   Partly Cloudy
1:53 PM 63.0 °F 35.1 °F 35% 30.26 in 10.0 mi NNW 13.8 mph - N/A   Partly Cloudy
2:53 PM 62.1 °F 32.0 °F 32% 30.25 in 10.0 mi NNW 13.8 mph - N/A   Partly Cloudy
3:53 PM 62.1 °F 33.1 °F 34% 30.25 in 10.0 mi North 15.0 mph - N/A   Partly Cloudy
4:53 PM 61.0 °F 30.0 °F 31% 30.26 in 10.0 mi NNW 12.7 mph - N/A   Partly Cloudy
5:53 PM 59.0 °F 30.0 °F 33% 30.27 in 10.0 mi North 13.8 mph - N/A   Partly Cloudy
6:53 PM 57.9 °F 30.9 °F 36% 30.29 in 10.0 mi North 15.0 mph - N/A   Partly Cloudy
7:53 PM 55.9 °F 33.1 °F 42% 30.31 in 10.0 mi North 13.8 mph - N/A   Clear
8:53 PM 55.9 °F 33.1 °F 42% 30.31 in 10.0 mi North 13.8 mph - N/A   Partly Cloudy
9:53 PM 54.0 °F 28.0 °F 37% 30.32 in 10.0 mi NNE 16.1 mph - N/A   Clear
10:53 PM 52.0 °F 28.9 °F 41% 30.32 in 10.0 mi North 16.1 mph - N/A   Clear
11:53 PM 51.1 °F 32.0 °F 48% 30.32 in 10.0 mi North 16.1 mph - N/A   Partly Cloudy